EW3148 Weather Reports


time (UTC)temp
C
wind
direction
speed
KPH
gust
KPH
rain 1hr
cm
rain 24hr
cm
rain mn
cm
humidity
%
barometer
mb
20260503005721 21 82 0.0 1.6 0.00 0.03 0.03 50 1018.8
20260503004742 21 82 0.0 0.0 0.00 0.03 0.03 49 1018.9
20260503003717 21 65 1.6 6.4 0.00 0.03 0.03 46 1018.8
20260503002723 22 77 1.6 6.4 0.00 0.03 0.03 45 1018.7
20260503001653 22 48 1.6 12.9 0.00 0.03 0.03 44 1018.7
20260503000649 22 51 1.6 12.9 0.00 0.03 0.03 42 1018.7
20260502235654 23 66 1.6 9.7 0.00 0.03 0.03 42 1018.7
20260502234640 23 36 1.6 12.9 0.00 0.03 0.03 42 1018.6
20260502233610 23 52 3.2 12.9 0.00 0.03 0.03 42 1018.6
20260502232625 23 43 3.2 11.3 0.00 0.03 0.03 42 1018.6
20260502230408 23 55 4.8 14.5 0.00 0.03 0.03 42 1018.5
20260502225333 23 96 4.8 16.1 0.00 0.03 0.03 39 1018.5
20260502224258 23 49 4.8 16.1 0.00 0.05 0.03 38 1018.5
20260502214911 23 95 3.2 17.7 0.00 0.10 0.03 39 1018.7
20260502212758 23 41 4.8 17.7 0.00 0.18 0.03 42 1019.0
20260502211726 23 65 4.8 16.1 0.00 0.20 0.03 40 1019.2
20260502210659 23 36 4.8 14.5 0.00 0.23 0.03 43 1019.3
20260502205658 23 11 4.8 14.5 0.00 0.30 0.03 40 1019.5
20260502204635 23 59 3.2 16.1 0.00 0.30 0.03 45 1019.6
20260502203634 23 75 1.6 16.1 0.00 0.30 0.03 42 1019.9
20260502202642 23 65 3.2 14.5 0.00 0.30 0.03 44 1019.9
20260502201655 23 46 1.6 14.5 0.00 0.30 0.03 44 1020.0
20260502200634 23 57 4.8 17.7 0.00 0.30 0.03 44 1020.1
20260502195606 23 30 4.8 17.7 0.00 0.30 0.03 49 1020.3
20260502194604 23 55 4.8 17.7 0.00 0.30 0.03 44 1020.3
20260502193628 22 77 4.8 17.7 0.00 0.30 0.03 45 1020.3
20260502192611 23 0 3.2 17.7 0.00 0.33 0.03 45 1020.4
20260502191632 23 100 6.4 17.7 0.00 0.36 0.03 45 1020.5
20260502184308 22 0 4.8 16.1 0.00 0.38 0.03 52 1020.6
20260502182116 22 338 6.4 17.7 0.00 0.41 0.03 51 1020.9
20260502181137 21 286 4.8 20.9 0.00 0.46 0.03 56 1021.0
20260502162440 19 336 4.8 19.3 0.00 0.99 0.03 63 1022.1
20260502161416 19 5 3.2 14.5 0.00 0.99 0.03 63 1022.2
20260502160410 18 347 3.2 14.5 0.00 0.99 0.03 60 1022.2
20260502152223 17 5 3.2 11.3 0.00 1.07 0.03 72 1022.1
20260502151225 16 355 1.6 12.9 0.00 1.12 0.03 75 1022.2
20260502150210 16 9 4.8 12.9 0.00 1.12 0.03 73 1022.1
20260502123704 8 324 0.0 3.2 0.00 1.35 0.03 96 1020.3
20260502122624 8 327 0.0 1.6 0.00 1.37 0.03 96 1020.3
20260502121626 8 311 0.0 1.6 0.00 1.50 0.03 95 1020.0
20260502120620 8 355 0.0 1.6 0.00 1.52 0.03 95 1019.7
20260502115625 8 355 0.0 0.0 0.00 1.52 0.03 95 1019.5
20260502113508 8 355 0.0 0.0 0.00 1.78 0.03 95 1019.3
20260502112450 8 355 0.0 1.6 0.00 1.85 0.03 95 1019.2
20260502111453 8 355 0.0 3.2 0.00 1.93 0.03 95 1019.0
20260502110419 8 0 0.0 3.2 0.00 2.01 0.03 95 1018.9
20260502104315 8 346 0.0 4.8 0.00 2.08 0.03 95 1018.9
20260502103340 9 0 1.6 4.8 0.00 2.11 0.03 95 1018.6
20260502101247 9 336 3.2 8.0 0.00 2.26 0.03 95 1018.1
20260502090852 10 11 3.2 9.7 0.00 2.46 0.00 95 1017.2
20260502070607 10 355 3.2 8.0 0.00 2.97 0.00 95 1016.9
20260502065606 10 5 1.6 8.0 0.00 2.97 0.00 95 1016.8
20260502064607 10 30 3.2 8.0 0.00 2.97 0.00 95 1016.8
20260502063607 10 0 1.6 6.4 0.00 2.97 0.00 95 1016.8
20260502062536 10 351 3.2 11.3 0.00 2.97 0.00 95 1017.0
20260502061502 10 17 3.2 9.7 0.00 2.97 0.00 95 1017.1
20260502060449 10 339 1.6 4.8 0.00 3.00 0.00 95 1017.1
20260502055446 10 0 1.6 4.8 0.00 3.00 0.00 95 1017.1
20260502054413 10 13 1.6 3.2 0.00 3.00 0.00 95 1017.3
20260502053400 10 9 1.6 6.4 0.00 3.00 0.00 95 1017.1
20260502052328 10 355 1.6 6.4 0.00 3.00 0.00 95 1017.0
20260502051339 11 342 1.6 4.8 0.00 3.00 0.00 94 1016.9
20260502050330 11 40 0.0 6.4 0.00 3.00 0.00 94 1016.7
20260502044115 11 49 1.6 9.7 0.00 3.00 3.00 94 1016.6
20260502043112 11 24 1.6 6.4 0.00 3.00 3.00 94 1016.8
20260502040919 11 35 1.6 8.0 0.00 3.00 3.00 94 1016.9
20260502035903 11 342 1.6 12.9 0.00 3.00 3.00 94 1016.6
20260502034910 11 345 3.2 14.5 0.00 3.00 3.00 94 1016.6
20260502033859 11 24 4.8 14.5 0.00 3.00 3.00 94 1016.7
20260502032833 11 348 4.8 12.9 0.00 3.00 3.00 94 1016.8
20260502031844 11 355 4.8 14.5 0.00 3.00 3.00 94 1016.7
20260502025646 11 22 4.8 16.1 0.00 3.00 3.00 94 1016.3
20260502023520 11 36 6.4 17.7 0.00 3.02 3.00 94 1015.8
20260502022448 11 342 4.8 22.5 0.00 3.02 3.00 94 1015.7
20260502021454 11 47 4.8 22.5 0.00 3.02 3.00 94 1015.5
20260502015319 11 31 4.8 16.1 0.00 3.05 3.00 95 1015.3
20260502014329 11 15 4.8 20.9 0.00 3.05 3.00 95 1015.1
20260502013322 11 55 6.4 20.9 0.00 3.05 3.00 95 1014.9
20260502012345 11 58 4.8 19.3 0.00 3.05 3.00 95 1014.7
20260502011315 11 32 4.8 19.3 0.00 3.05 3.00 95 1014.5
20260502010334 11 13 6.4 17.7 0.00 3.05 3.00 95 1014.5